When you browse on this site, cookies collect data to enhance your experience and personalize the content and advertising you see.
Visit our Privacy Policy to learn more. By continuing to use the site, you agree to this use of cookies and data.
  • In Schweiz
  • Länderverzeichnis
  • Für 7 Tage
  • Wassertemperatur
  • Satellitenkarten
  • Wetterkarte
  • Widgets
  • user-avatar
    Anmelden

    Stündliche Wetter Samroung

    Heute, 19 Dezember, Mittwoch

    Zeit Temperatur Niederschläge Wind Luftdruck Luftfeuchtigkeit
    00:00 +26°C° 0 mm 2 m/S 758 mmHg 79%
    01:00 +26°C° 0 mm 2 m/S 758 mmHg 80%
    02:00 +26°C° 0 mm 2 m/S 758 mmHg 81%
    03:00 +26°C° 0 mm 2 m/S 758 mmHg 81%
    04:00 +25°C° 0 mm 2 m/S 758 mmHg 82%
    05:00 +25°C° 0 mm 3 m/S 758 mmHg 82%
    06:00 +25°C° 0 mm 3 m/S 758 mmHg 82%
    07:00 +26°C° 0 mm 2 m/S 759 mmHg 83%
    08:00 +27°C° 0 mm 3 m/S 759 mmHg 75%
    09:00 +29°C° 0 mm 3 m/S 759 mmHg 67%
    10:00 +31°C° 0 mm 3 m/S 759 mmHg 60%
    11:00 +33°C° 0 mm 3 m/S 758 mmHg 57%
    12:00 +34°C° 0 mm 3 m/S 758 mmHg 55%
    13:00 +34°C° 0 mm 3 m/S 758 mmHg 54%
    14:00 +34°C° 0 mm 3 m/S 757 mmHg 56%
    15:00 +34°C° 0 mm 3 m/S 757 mmHg 57%
    16:00 +34°C° 0 mm 3 m/S 757 mmHg 59%
    17:00 +31°C° 0 mm 3 m/S 757 mmHg 66%
    18:00 +30°C° 0 mm 2 m/S 757 mmHg 72%
    19:00 +28°C° 0 mm 2 m/S 758 mmHg 79%
    20:00 +28°C° 0 mm 2 m/S 758 mmHg 80%
    21:00 +27°C° 0 mm 2 m/S 758 mmHg 81%
    22:00 +27°C° 0 mm 2 m/S 759 mmHg 82%
    23:00 +27°C° 0 mm 2 m/S 759 mmHg 83%

    Morgen, 20 Dezember, Donnerstag

    Zeit Temperatur Niederschläge Wind Luftdruck Luftfeuchtigkeit
    00:00 +27°C° 0 mm 2 m/S 759 mmHg 83%
    01:00 +26°C° 0 mm 2 m/S 759 mmHg 84%
    02:00 +26°C° 0.1 mm 1 m/S 758 mmHg 85%
    03:00 +26°C° 0.1 mm 1 m/S 758 mmHg 85%
    04:00 +26°C° 0.1 mm 1 m/S 758 mmHg 86%
    05:00 +26°C° 0 mm 2 m/S 758 mmHg 86%
    06:00 +26°C° 0 mm 2 m/S 758 mmHg 86%
    07:00 +27°C° 0 mm 2 m/S 758 mmHg 86%
    08:00 +29°C° 0 mm 1 m/S 758 mmHg 77%
    09:00 +31°C° 0 mm 1 m/S 758 mmHg 68%
    10:00 +33°C° 0 mm 1 m/S 759 mmHg 59%
    11:00 +34°C° 0 mm 1 m/S 758 mmHg 57%
    12:00 +35°C° 0 mm 1 m/S 758 mmHg 54%
    13:00 +37°C° 0 mm 2 m/S 757 mmHg 51%
    14:00 +36°C° 0 mm 2 m/S 756 mmHg 54%
    15:00 +35°C° 0 mm 2 m/S 756 mmHg 58%
    16:00 +34°C° 0 mm 3 m/S 755 mmHg 61%
    17:00 +33°C° 0.1 mm 3 m/S 755 mmHg 69%
    18:00 +30°C° 0.1 mm 2 m/S 756 mmHg 78%
    19:00 +28°C° 0.1 mm 2 m/S 756 mmHg 87%
    20:00 +28°C° 0.2 mm 2 m/S 757 mmHg 89%
    21:00 +28°C° 0.2 mm 2 m/S 757 mmHg 90%
    22:00 +27°C° 0.2 mm 2 m/S 757 mmHg 92%
    23:00 +27°C° 0.1 mm 2 m/S 757 mmHg 93%

    übermorgen, 21 Dezember, Freitag

    Zeit Temperatur Niederschläge Wind Luftdruck Luftfeuchtigkeit
    00:00 +27°C° 0.1 mm 2 m/S 757 mmHg 94%
    01:00 +26°C° 0.1 mm 2 m/S 757 mmHg 94%
    02:00 +26°C° 0 mm 1 m/S 756 mmHg 95%
    03:00 +26°C° 0 mm 1 m/S 756 mmHg 95%
    04:00 +26°C° 0 mm 1 m/S 756 mmHg 96%
    05:00 +26°C° 0 mm 1 m/S 756 mmHg 95%
    06:00 +26°C° 0 mm 1 m/S 757 mmHg 95%
    07:00 +27°C° 0 mm 1 m/S 757 mmHg 94%
    08:00 +29°C° 0 mm 1 m/S 757 mmHg 83%
    09:00 +29°C° 0 mm 0 m/S 758 mmHg 72%
    10:00 +32°C° 0 mm 0 m/S 758 mmHg 61%
    11:00 +34°C° 0 mm 1 m/S 757 mmHg 59%
    12:00 +34°C° 0 mm 1 m/S 756 mmHg 57%
    13:00 +36°C° 0 mm 2 m/S 756 mmHg 55%
    14:00 +35°C° 0.1 mm 2 m/S 755 mmHg 61%
    15:00 +34°C° 0.1 mm 2 m/S 755 mmHg 67%
    16:00 +33°C° 0.1 mm 3 m/S 754 mmHg 73%
    17:00 +31°C° 0.1 mm 3 m/S 755 mmHg 79%
    18:00 +29°C° 0.1 mm 2 m/S 755 mmHg 85%
    19:00 +28°C° 0.1 mm 2 m/S 756 mmHg 91%
    20:00 +28°C° 0.1 mm 2 m/S 756 mmHg 92%
    21:00 +27°C° 0.1 mm 2 m/S 757 mmHg 93%
    22:00 +27°C° 0.1 mm 1 m/S 757 mmHg 94%
    23:00 +27°C° 0.1 mm 1 m/S 757 mmHg 94%

    22 Dezember, Samstag

    Zeit Temperatur Niederschläge Wind Luftdruck Luftfeuchtigkeit
    00:00 +27°C° 0.1 mm 1 m/S 756 mmHg 94%
    01:00 +27°C° 0.1 mm 1 m/S 756 mmHg 94%
    02:00 +26°C° 0 mm 1 m/S 756 mmHg 94%
    03:00 +26°C° 0 mm 1 m/S 755 mmHg 95%
    04:00 +26°C° 0 mm 1 m/S 755 mmHg 95%
    05:00 +26°C° 0 mm 1 m/S 755 mmHg 94%
    06:00 +26°C° 0 mm 1 m/S 756 mmHg 94%
    07:00 +27°C° 0 mm 1 m/S 756 mmHg 94%
    08:00 +29°C° 0 mm 1 m/S 757 mmHg 83%
    09:00 +31°C° 0 mm 1 m/S 757 mmHg 72%
    10:00 +34°C° 0 mm 1 m/S 757 mmHg 61%
    11:00 +34°C° 0 mm 1 m/S 756 mmHg 57%
    12:00 +36°C° 0 mm 2 m/S 756 mmHg 53%
    13:00 +37°C° 0 mm 2 m/S 755 mmHg 49%
    14:00 +36°C° 0.1 mm 3 m/S 755 mmHg 51%
    15:00 +36°C° 0.1 mm 3 m/S 754 mmHg 53%
    16:00 +35°C° 0.1 mm 4 m/S 754 mmHg 55%
    17:00 +33°C° 0.3 mm 3 m/S 754 mmHg 66%
    18:00 +30°C° 0.3 mm 3 m/S 755 mmHg 76%
    19:00 +28°C° 0.3 mm 3 m/S 755 mmHg 87%
    20:00 +28°C° 0.1 mm 2 m/S 756 mmHg 89%
    21:00 +27°C° 0.1 mm 2 m/S 756 mmHg 90%
    22:00 +27°C° 0.1 mm 2 m/S 757 mmHg 91%
    23:00 +27°C° 0 mm 2 m/S 756 mmHg 92%

    23 Dezember, Sonntag

    Zeit Temperatur Niederschläge Wind Luftdruck Luftfeuchtigkeit
    00:00 +27°C° 0 mm 2 m/S 756 mmHg 93%
    01:00 +26°C° 0 mm 2 m/S 755 mmHg 94%
    02:00 +26°C° 0 mm 2 m/S 755 mmHg 94%
    03:00 +26°C° 0 mm 2 m/S 755 mmHg 94%
    04:00 +26°C° 0 mm 2 m/S 754 mmHg 94%
    05:00 +26°C° 0 mm 2 m/S 755 mmHg 94%
    06:00 +26°C° 0 mm 2 m/S 755 mmHg 93%
    07:00 +27°C° 0 mm 2 m/S 756 mmHg 93%
    08:00 +29°C° 0 mm 2 m/S 756 mmHg 80%
    09:00 +31°C° 0 mm 2 m/S 756 mmHg 68%
    10:00 +34°C° 0 mm 2 m/S 757 mmHg 56%
    11:00 +35°C° 0 mm 2 m/S 756 mmHg 53%
    12:00 +35°C° 0 mm 3 m/S 755 mmHg 49%
    13:00 +36°C° 0 mm 3 m/S 754 mmHg 46%
    14:00 +36°C° 0.1 mm 3 m/S 754 mmHg 47%
    15:00 +36°C° 0.1 mm 3 m/S 753 mmHg 49%
    16:00 +35°C° 0.1 mm 3 m/S 753 mmHg 50%
    17:00 +34°C° 0.3 mm 3 m/S 753 mmHg 56%
    18:00 +31°C° 0.3 mm 3 m/S 754 mmHg 61%
    19:00 +30°C° 0.3 mm 2 m/S 755 mmHg 67%
    20:00 +29°C° 0.5 mm 2 m/S 755 mmHg 68%
    21:00 +29°C° 0.5 mm 2 m/S 756 mmHg 70%
    22:00 +29°C° 0.5 mm 2 m/S 756 mmHg 71%
    23:00 +28°C° 0.7 mm 1 m/S 756 mmHg 75%

    24 Dezember, Montag

    Zeit Temperatur Niederschläge Wind Luftdruck Luftfeuchtigkeit
    00:00 +28°C° 0.7 mm 1 m/S 755 mmHg 78%
    01:00 +27°C° 0.7 mm 1 m/S 755 mmHg 82%
    02:00 +27°C° 0.5 mm 1 m/S 755 mmHg 83%
    03:00 +26°C° 0.5 mm 1 m/S 755 mmHg 85%
    04:00 +26°C° 0.5 mm 1 m/S 754 mmHg 87%
    05:00 +26°C° 0.1 mm 1 m/S 755 mmHg 87%
    06:00 +27°C° 0.1 mm 1 m/S 755 mmHg 87%
    07:00 +27°C° 0.1 mm 1 m/S 756 mmHg 87%
    08:00 +29°C° 0 mm 1 m/S 756 mmHg 78%
    09:00 +30°C° 0 mm 1 m/S 756 mmHg 68%
    10:00 +32°C° 0 mm 1 m/S 756 mmHg 59%
    11:00 +33°C° 0 mm 1 m/S 756 mmHg 56%
    12:00 +35°C° 0 mm 2 m/S 755 mmHg 53%
    13:00 +36°C° 0 mm 2 m/S 754 mmHg 50%
    14:00 +35°C° 0.3 mm 2 m/S 754 mmHg 56%
    15:00 +34°C° 0.3 mm 2 m/S 754 mmHg 61%
    16:00 +33°C° 0.3 mm 3 m/S 753 mmHg 67%
    17:00 +31°C° 0.7 mm 3 m/S 754 mmHg 73%
    18:00 +29°C° 0.7 mm 2 m/S 754 mmHg 80%
    19:00 +27°C° 0.7 mm 2 m/S 755 mmHg 87%
    20:00 +27°C° 0.1 mm 2 m/S 755 mmHg 89%
    21:00 +27°C° 0.1 mm 2 m/S 755 mmHg 90%
    22:00 +27°C° 0.1 mm 1 m/S 756 mmHg 92%
    23:00 +26°C° 0.5 mm 1 m/S 755 mmHg 93%
    Mehr zeigen